Mountain Home, AR

2:25 PM CDT on October 18, 2019 (GMT -0500)
Baxter County Regional

Weather History for KBPK - August, 2019

Change the Weather History Date:

Friday, August 16, 2019

  Actual Average (KFLP) Record (KFLP)
Temperature  
Mean Temperature 78 °F -  
Max Temperature 84 °F 88 °F 102 °F (2007)
Min Temperature 72 °F 65 °F 53 °F (2004)
Cooling Degree Days 13    
Growing Degree Days 28 (Base 50)    
Moisture  
Dew Point 70 °F    
Average Humidity 78    
Maximum Humidity 93    
Minimum Humidity 63    
Precipitation  
Precipitation 0.00 in - - ()
Sea Level Pressure  
Sea Level Pressure 29.96 in    
Wind  
Wind Speed 4 mph (South)    
Max Wind Speed 14 mph    
Max Gust Speed 17 mph    
Visibility 10 miles    
Events      
Averages and records for this station are not official NWS values.
T = Trace of Precipitation, MM = Missing Value Source: NWS Daily Summary

Daily Weather History Graph

Daily Weather History Graph

Search for Another Location

Airport or City:

Astronomy

Aug. 16, 2019 Rise Set
Actual Time 6:28 AM CDT 7:59 PM CDT
Civil Twilight 6:01 AM CDT 8:26 PM CDT
Nautical Twilight 5:28 AM CDT 8:59 PM CDT
Astronomical Twilight 4:53 AM CDT 9:33 PM CDT
Moon 9:00 PM CDT (8/16) 7:20 AM CDT (8/16)
Length of Visible Light 14h 25m
Length of Day
13h 31m
Full, 99% of the Moon is Illuminated
Aug 16
Full
Aug 23
Last Quarter
Aug 30
New
Sep 5
First Quarter
Sep 13
Full

Hourly Weather History & Observations

Time (CDT) Temp. Heat Index Dew Point Humidity Pressure Visibility Wind Dir Wind Speed Gust Speed Precip Events Conditions
1:53 AM 72.0 °F - 70.0 °F 93% 29.94 in 10.0 mi South 4.6 mph - N/A   Clear
2:53 AM 72.0 °F - 70.0 °F 93% 29.94 in 10.0 mi South 3.5 mph - N/A   Clear
3:53 AM 72.0 °F - 70.0 °F 93% 29.95 in 10.0 mi SE 3.5 mph - N/A   Clear
5:53 AM 73.0 °F - 71.1 °F 93% 30.02 in 10.0 mi Variable 4.6 mph - N/A   Mostly Cloudy
6:53 AM 73.0 °F - 68.0 °F 84% 30.02 in 10.0 mi Variable 4.6 mph - N/A   Overcast
7:53 AM 72.0 °F - 66.0 °F 81% 30.02 in 10.0 mi SE 4.6 mph - N/A   Clear
8:53 AM 73.0 °F - 66.9 °F 81% 30.02 in 10.0 mi South 6.9 mph - N/A   Mostly Cloudy
9:53 AM 75.0 °F - 68.0 °F 79% 30.04 in 10.0 mi SW 3.5 mph - N/A   Clear
10:53 AM 79.0 °F - 68.0 °F 69% 30.06 in 10.0 mi Variable 3.5 mph - N/A   Clear
11:53 AM 81.0 °F 83.8 °F 68.0 °F 65% 30.04 in 10.0 mi Variable 4.6 mph - N/A   Clear
12:53 PM 82.0 °F 85.9 °F 70.0 °F 67% 29.99 in 10.0 mi Variable 5.8 mph - N/A   Clear
1:53 PM 84.0 °F 89.0 °F 71.1 °F 65% 29.91 in 10.0 mi SW 13.8 mph 17.3 mph N/A   Partly Cloudy
2:53 PM 84.9 °F 90.1 °F 71.1 °F 63% 29.91 in 10.0 mi Variable 3.5 mph - N/A   Partly Cloudy
3:53 PM 82.0 °F 86.3 °F 71.1 °F 69% 29.94 in 10.0 mi Calm Calm - N/A   Partly Cloudy
4:53 PM 82.9 °F 88.8 °F 73.0 °F 72% 29.94 in 10.0 mi Calm Calm - N/A   Clear
5:53 PM 82.9 °F 88.0 °F 72.0 °F 69% 29.89 in 10.0 mi South 4.6 mph - N/A   Clear
7:53 PM 79.0 °F - 72.0 °F 79% 29.88 in 10.0 mi SSE 4.6 mph - N/A   Clear
8:53 PM 78.1 °F - 71.1 °F 79% 29.88 in 10.0 mi SE 4.6 mph - N/A   Clear
10:53 PM 78.1 °F - 72.0 °F 81% 29.88 in 10.0 mi SSE 5.8 mph - N/A   Clear
11:53 PM 77.0 °F - 72.0 °F 84% 29.91 in 10.0 mi SSE 4.6 mph - N/A   Clear